Tracking 17636 objects as of 29-April-2016
HD Live streaming from Space Station
objects crossing your sky now

COSMOS 2251 DEB

Track COSMOS 2251 DEB now!
10-day predictions


NORAD ID: 35448
Int'l Code: 1993-036AKS
Perigee: 755.3 km
Apogee: 777.1 km
Inclination: 73.9 °
Period: 100.0 minutes
Semi major axis: 7137 km
RCS: 0.0138 m2 (small)
Launch date: June 16, 1993
Source: Commonwealth of Independent States (former USSR) (CIS)
Launch site: PLESETSK MISSILE AND SPACE COMPLEX (PKMTR)

Note: This is SATELLITE DEBRIS
Your satellite tracking list
Your tracking list is empty





NASA's NSSDC Master Catalog

Two Line Element Set (TLE):
1 35448U 93036AKS 16119.15468649 +.00000428 +00000-0 +14506-3 0  9999
2 35448 073.9098 190.1524 0015260 016.1491 344.0146 14.39817852366184
Source of the keplerian elements: AFSPC

N2YO: 342